TimeEDT,TemperatureF,Dew PointF,Humidity,Sea Level PressureIn,VisibilityMPH,Wind Direction,Wind SpeedMPH,Gust SpeedMPH,PrecipitationIn,Events,Conditions,WindDirDegrees,DateUTC
12:54 AM,80.1,73.9,81,29.84,10.0,SW,10.4,-,N/A,,Clear,220,2013-07-11 04:54:00
1:54 AM,79.0,70.0,74,29.86,10.0,SW,6.9,-,N/A,,Mostly Cloudy,230,2013-07-11 05:54:00
2:54 AM,79.0,70.0,74,29.84,10.0,SW,6.9,-,N/A,,Clear,220,2013-07-11 06:54:00
3:54 AM,78.1,70.0,76,29.83,10.0,SSW,8.1,-,N/A,,Clear,210,2013-07-11 07:54:00
4:54 AM,77.0,71.1,82,29.85,10.0,WSW,9.2,-,N/A,,Scattered Clouds,240,2013-07-11 08:54:00
5:21 AM,77.0,71.6,83,29.85,10.0,SW,8.1,-,0.00,Rain,Light Rain,230,2013-07-11 09:21:00
5:54 AM,75.9,71.1,85,29.85,10.0,SW,6.9,-,0.00,Rain,Light Rain,230,2013-07-11 09:54:00
6:30 AM,77.0,71.6,83,29.86,10.0,WSW,12.7,-,0.00,,Mostly Cloudy,250,2013-07-11 10:30:00
6:54 AM,77.0,71.1,82,29.87,10.0,West,9.2,-,0.00,,Overcast,260,2013-07-11 10:54:00
7:54 AM,77.0,71.1,82,29.89,10.0,SW,9.2,-,N/A,,Overcast,230,2013-07-11 11:54:00
8:30 AM,77.0,71.6,83,29.90,7.0,WSW,6.9,-,0.00,Rain,Light Rain,240,2013-07-11 12:30:00
8:54 AM,75.9,71.1,85,29.89,9.0,WSW,6.9,-,0.00,Rain,Light Rain,240,2013-07-11 12:54:00
9:54 AM,75.9,72.0,87,29.90,9.0,West,9.2,-,0.00,Rain,Light Rain,280,2013-07-11 13:54:00
10:54 AM,77.0,71.1,82,29.91,9.0,WNW,9.2,-,0.00,,Partly Cloudy,290,2013-07-11 14:54:00
11:54 AM,77.0,70.0,79,29.91,10.0,NNW,6.9,-,0.00,,Clear,330,2013-07-11 15:54:00
12:54 PM,79.0,69.1,72,29.91,10.0,NNW,3.5,-,N/A,,Clear,330,2013-07-11 16:54:00
1:54 PM,82.9,69.1,63,29.90,10.0,Calm,Calm,-,N/A,,Clear,0,2013-07-11 17:54:00
2:54 PM,82.9,68.0,60,29.88,10.0,Variable,4.6,-,N/A,,Mostly Cloudy,0,2013-07-11 18:54:00
3:54 PM,82.9,68.0,60,29.87,10.0,NNW,6.9,-,N/A,,Partly Cloudy,330,2013-07-11 19:54:00
4:54 PM,84.9,66.9,55,29.87,10.0,NNW,6.9,-,N/A,,Partly Cloudy,330,2013-07-11 20:54:00
5:54 PM,86.0,66.9,53,29.88,10.0,Variable,4.6,-,N/A,,Mostly Cloudy,0,2013-07-11 21:54:00
6:54 PM,84.0,68.0,58,29.89,10.0,WNW,6.9,-,N/A,,Clear,290,2013-07-11 22:54:00
7:54 PM,82.0,66.9,60,29.90,10.0,NW,4.6,-,N/A,,Clear,310,2013-07-11 23:54:00
8:54 PM,80.1,68.0,67,29.90,10.0,NW,4.6,-,N/A,,Clear,310,2013-07-12 00:54:00
9:54 PM,79.0,69.1,72,29.92,10.0,North,3.5,-,N/A,,Clear,10,2013-07-12 01:54:00
10:54 PM,78.1,64.9,64,29.93,10.0,NE,10.4,-,N/A,,Overcast,40,2013-07-12 02:54:00
11:54 PM,75.9,64.0,67,29.93,10.0,NNE,6.9,-,N/A,,Mostly Cloudy,30,2013-07-12 03:54:00